Regional Weather Roundup
Issued by NWS

Home | Current Version | Previous Version | Text Only | Print | Product List | Glossary On
Versions: 1 2 3 4 5 6 7 8 9 10 11 12 13 14 15 16 17 18 19 20 21 22 23 24 25 26 27 28 29 30 31 32 33 34 35 36 37 38 39 40 41 42 43 44 45 46 47 48 49 50
947
ASUS44 KJAN 211710
RWRMS

MISSISSIPPI HOURLY WEATHER ROUNDUP
NATIONAL WEATHER SERVICE JACKSON MS
1100 AM CST SUN DEC 21 2014

NOTE: "FAIR: INDICATES FEW OR NO CLOUDS BELOW 12,000 FEET WITH NO
SIGNIFICANT WEATHER AND/OR OBSTRUCTIONS TO VISIBILITY.

MSZ001>002-007>008-010>013-018>021-025>028-034>036-211800-
NORTHWEST MISSISSIPPI

CITY           SKY/WX    TMP DP  RH WIND       PRES   REMARKS
CLARKSDALE     FAIR      48  37  66 E8        30.18F
CLEVELAND      FAIR      51  38  62 E5        30.16F
GREENWOOD      SUNNY     53  37  54 VRB3      30.16F
GREENVILLE     SUNNY     51  36  56 SE6       30.15F
GRENADA        FAIR      46  36  66 CALM      30.18F
OLIVE BRANCH   MOSUNNY   46  36  66 E5        30.18F
OXFORD         FAIR      50  32  50 E5        30.18F
TUNICA         SUNNY     50  36  57 E6        30.18F
$$

MSZ003>006-009-014>017-022>024-029>033-037>039-211800-
NORTHEAST MISSISSIPPI

CITY           SKY/WX    TMP DP  RH WIND       PRES   REMARKS
COLUMBUS AFB   CLOUDY    45  37  76 NW2       30.17F
CORINTH        FAIR      50  32  50 E7        30.18F
GOLDN TRIANGLE CLOUDY    43  37  81 CALM      30.17F
STARKVILLE     CLOUDY    45  39  81 CALM      30.17F
TUPELO         SUNNY     49  35  58 N5        30.17F
$$

MSZ040-058-211800-
CENTRAL MISSISSIPPI

CITY           SKY/WX    TMP DP  RH WIND       PRES   REMARKS
JACKSON INTL   MOSUNNY   54  44  69 E5        30.14F
JACKSON HAWKNS SUNNY     53  43  68 E5        30.14F
MERIDIAN KEY   CLOUDY    48  44  86 N3        30.14F
MERIDIAN NAS   CLOUDY    47  43  86 E5        30.15F
RAYMOND        FAIR      55  50  82 SE6       30.13F
VICKSBURG      SUNNY     53  43  68 SE3       30.15F
$$

MSZ059>079-211800-
SOUTH MISSISSIPPI

CITY           SKY/WX    TMP DP  RH WIND       PRES   REMARKS
HATTIESBURG    CLOUDY    50  46  86 NE6       30.14F
MCCOMB         PTSUNNY   52  45  77 N6        30.10F
NATCHEZ        PTSUNNY   52  45  76 CALM      30.14F
PINE BELT      CLOUDY    46  43  87 NE5       30.13F
$$

MSZ080>082-211800-
COASTAL MISSISSIPPI

CITY           SKY/WX    TMP DP  RH WIND       PRES   REMARKS
BAY ST LOUIS   MOSUNNY   55  46  71 CALM      30.11S
BILOXI         CLOUDY    57  51  79 E7        30.10F
PASCAGOULA     CLOUDY    56  52  86 E7        30.10F
GULFPORT       CLOUDY    57  50  77 E5        30.09F
$$



USA.gov is the U.S. government's official web portal to all federal, state and local government web resources and services.